Location: Larch Mountain
(45.5297°N, 122.0872°W)
Time: 05:50:33
(UTC-07:00)

ISS - All Passes

Search period start: 27 August 2014 00:00
Search period end: 06 September 2014 00:00
Orbit: 413 x 419 km, 51.6° (Epoch: 27 August)

Date Brightness Start Highest point End Pass type
(mag) Time Alt. Az. Time Alt. Az. Time Alt. Az.
27 Aug - 11:33:41 10° SSE 11:35:24 14° SE 11:37:07 10° ESE daylight
27 Aug - 13:08:21 10° WSW 13:11:40 85° SSE 13:15:00 10° ENE daylight
27 Aug - 14:45:39 10° WNW 14:48:40 31° N 14:51:42 10° NE daylight
27 Aug - 16:22:59 10° NW 16:25:59 30° N 16:29:00 10° ENE daylight
27 Aug - 17:59:40 10° WNW 18:03:01 88° NNE 18:06:21 10° ESE daylight
27 Aug - 19:37:22 10° W 19:39:20 15° SW 19:41:18 10° S daylight
28 Aug - 12:19:48 10° SW 12:23:03 53° SE 12:26:18 10° ENE daylight
28 Aug - 13:56:45 10° W 13:59:53 37° NNW 14:03:01 10° NE daylight
28 Aug - 15:34:15 10° WNW 15:37:10 28° N 15:40:06 10° ENE daylight
28 Aug - 17:11:02 10° WNW 17:14:20 60° NNE 17:17:38 10° ESE daylight
28 Aug - 18:48:06 10° W 18:50:51 24° SW 18:53:36 10° SSE daylight
29 Aug - 11:31:27 10° SSW 11:34:28 32° SE 11:37:29 10° ENE daylight
29 Aug - 13:07:52 10° W 13:11:06 48° NNW 13:14:21 10° NE daylight
29 Aug - 14:45:25 10° WNW 14:48:20 27° N 14:51:14 10° ENE daylight
29 Aug - 16:22:22 10° NW 16:25:35 43° NNE 16:28:47 10° E daylight
29 Aug - 17:59:10 10° WNW 18:02:18 39° SW 18:05:25 10° SSE daylight
30 Aug - 10:43:24 10° S 10:45:55 20° SE 10:48:26 10° E daylight
30 Aug - 12:19:02 10° WSW 12:22:21 69° NNW 12:25:40 10° ENE daylight
30 Aug - 13:56:31 10° WNW 13:59:28 28° N 14:02:25 10° NE daylight
30 Aug - 15:33:40 10° NW 15:36:46 34° NNE 15:39:51 10° E daylight
30 Aug - 17:10:21 10° WNW 17:13:40 64° SSW 17:16:57 10° SE daylight
31 Aug - 09:55:57 10° SSE 09:57:24 12° SE 09:58:50 10° ESE daylight
31 Aug - 11:30:18 10° SW 11:33:37 79° SSE 11:36:57 10° ENE daylight
31 Aug - 13:07:33 10° WNW 13:10:35 32° NNW 13:13:38 10° NE daylight
31 Aug - 14:44:55 10° NW 14:47:54 30° N 14:50:53 10° ENE daylight
31 Aug - 16:21:37 10° WNW 16:24:57 82° NNE 16:28:17 10° ESE daylight
31 Aug - 17:59:08 10° W 18:01:18 16° SW 18:03:26 10° S daylight
01 Sep - 10:41:43 10° SW 10:44:55 48° SE 10:48:09 10° ENE daylight
01 Sep - 12:18:34 10° W 12:21:43 38° NNW 12:24:52 10° NE daylight
01 Sep - 13:56:04 10° WNW 13:59:00 27° N 14:01:55 10° ENE daylight
01 Sep - 15:32:53 10° WNW 15:36:10 56° NNE 15:39:27 10° ESE daylight
01 Sep - 17:09:53 10° W 17:12:43 26° SW 17:15:33 10° SSE daylight
02 Sep - 09:53:19 10° SSW 09:56:15 30° SE 09:59:12 10° ENE daylight
02 Sep - 11:29:36 10° W 11:32:52 51° NNW 11:36:07 10° NE daylight
02 Sep - 13:07:09 10° WNW 13:10:04 27° N 13:12:58 10° ENE daylight
02 Sep - 14:44:08 10° NW 14:47:19 41° NNE 14:50:30 10° E daylight
02 Sep - 16:20:53 10° WNW 16:24:04 42° SW 16:27:13 10° SE daylight
03 Sep - 09:05:15 10° S 09:07:38 18° SE 09:10:01 10° E daylight
03 Sep - 10:40:42 10° WSW 10:44:01 74° NNW 10:47:21 10° ENE daylight
03 Sep - 12:18:09 10° WNW 12:21:06 29° N 12:24:04 10° NE daylight
03 Sep - 13:55:20 10° NW 13:58:25 33° NNE 14:01:28 10° E daylight
03 Sep - 15:32:01 10° WNW 15:35:20 70° SSW 15:38:38 10° SE daylight
03 Sep - 17:10:41 10° WSW 17:11:30 11° SW 17:12:18 10° SW daylight
04 Sep - 08:17:59 10° SSE 08:19:02 11° SE 08:20:05 10° ESE daylight
04 Sep - 09:51:54 10° SW 09:55:13 72° SSE 09:58:32 10° ENE daylight
04 Sep - 11:29:05 10° W 11:32:09 33° NNW 11:35:12 10° NE daylight
04 Sep - 13:06:29 10° NW 13:09:27 29° N 13:12:25 10° ENE daylight
04 Sep - 14:43:11 10° WNW 14:46:31 76° NNE 14:49:51 10° ESE daylight
04 Sep - 16:20:34 10° W 16:22:54 18° SW 16:25:13 10° S daylight
05 Sep - 09:03:16 10° SW 09:06:26 44° SE 09:09:38 10° ENE daylight
05 Sep - 10:40:01 10° W 10:43:12 40° NNW 10:46:22 10° NE daylight
05 Sep - 12:17:32 10° WNW 12:20:27 27° N 12:23:22 10° ENE daylight
05 Sep - 13:54:22 10° NW 13:57:38 52° NNE 14:00:54 10° E daylight
05 Sep - 15:31:18 10° WNW 15:34:13 28° SW 15:37:08 10° SSE daylight
